#timestamp,LO_Frequency,Hit,StdDev 
1651539615.1,286046999.3,N
1651539616.0,286046999.3,N
1651539635.8,286046998.7,N
1651539655.7,286046998.1,N
1651539675.5,286046996.5,Y
1651539695.4,286047000.9,P
1651539715.2,286047002.8,P
1651539735.0,286047000.0,N
1651539735.9,286047000.0,N
1651539755.8,286046998.3,N
1651539775.6,286046999.1,N
1651539795.4,286046998.6,N
1651539815.3,286046998.5,N
1651539835.1,286046998.3,N
1651539855.9,286047000.3,N
1651539875.7,286046998.4,N
1651539895.5,286047000.4,N
1651539915.4,286047000.5,N
1651539935.2,286046999.9,N
1651539955.0,286047000.5,N
1651539955.9,286047000.5,N
1651539975.8,286047002.6,N
1651539995.6,286047002.8,N
1651540015.5,286047002.8,N
1651540035.3,286047002.4,N
1651540055.1,286047002.6,N
1651540075.9,286047002.1,N
1651540095.7,286047002.7,N
1651540115.6,286046999.7,N
1651540135.4,286047001.8,N
1651540155.2,286047003.8,N
1651540175.1,286047004.1,N
1651540176.0,286047004.1,N
1651540195.8,286047003.4,N
1651540215.6,286047003.6,N
1651540235.5,286047004.0,N
1651540255.3,286047004.0,N
1651540275.2,286047002.1,N
1651540295.9,286046999.9,N
1651540315.7,286047000.4,N
1651540335.6,286047002.3,N
1651540355.4,286047001.6,N
1651540375.3,286047002.6,N
1651540395.1,286047002.8,N
1651540396.0,286047002.8,N
1651540415.8,286046999.7,N
1651540435.7,286047002.7,N
1651540455.5,286047001.8,N
1651540475.3,286047002.4,N
1651540495.2,286047000.2,N
1651540515.0,286047002.1,N
1651540515.9,286047002.1,N
1651540535.8,286046999.9,N
1651540555.6,286047002.7,N
1651540575.4,286046999.7,N
1651540595.3,286046999.8,N
1651540615.1,286047004.0,N
1651540635.9,286047001.9,N
1651540655.7,286046999.8,N
1651540675.5,286047003.9,N
1651540695.4,286047004.0,N
1651540715.2,286047002.6,N
1651540765.1,286047003.4,E
1651540775.9,286047004.4,N
1651540795.7,286047000.0,P
1651540815.6,286047000.3,N
1651540835.4,286047000.7,N
1651540855.3,286047001.2,N
1651540875.1,286046998.6,N
1651540876.0,286046998.6,N
1651540895.8,286046998.7,N
1651540915.7,286046998.9,N
1651540935.5,286046996.8,N
1651540955.3,286046995.7,N
1651540975.2,286046995.0,N
1651540995.0,286046997.3,N
1651540995.9,286046997.3,N
1651541015.8,286046996.8,N
1651541035.6,286046997.5,N
1651541055.4,286046996.6,N
1651541075.3,286046999.1,N
1651541095.1,286046997.0,N
1651541115.8,286047000.7,N
1651541135.7,286047001.2,N
1651541155.5,286046998.4,N
1651541175.4,286046998.9,N
1651541195.2,286046998.2,N
1651541215.0,286047000.7,N
1651541215.9,286047000.7,N
1651541235.8,286047000.8,N
1651541255.6,286047001.2,N
1651541275.4,286046996.5,N
1651541295.3,286046998.5,N
1651541315.1,286046998.9,N
1651541335.9,286046998.2,N
1651541355.7,286047000.7,N
1651541375.5,286046998.2,N
1651541395.4,286046999.5,N
1651541415.2,286047001.0,N
1651541435.0,286047001.1,N
1651541436.0,286047001.1,N
1651541455.8,286047002.4,N
1651541475.6,286047000.5,N
1651541495.5,286046998.1,N
1651541515.3,286047001.1,N
1651541535.1,286047000.0,N
1651541555.9,286047002.8,N
1651541575.7,286047002.1,N
1651541595.6,286047001.9,N
1651541615.4,286047001.9,N
1651541635.2,286047000.2,N
1651541655.1,286046999.9,N
1651541656.0,286046999.9,N
1651541675.8,286047001.9,N
1651541695.6,286047000.5,N
1651541715.5,286047001.2,N
1651541735.3,286047000.9,N
1651541755.2,286047000.0,N
1651541775.9,286047001.7,N
1651541795.7,286047000.2,N
1651541815.6,286047000.9,N
1651541835.4,286047000.3,N
1651541855.2,286047003.4,N
1651541875.1,286047001.5,N
1651541876.0,286047001.5,N
1651541895.8,286046999.8,N
1651541915.7,286047001.4,N
1651541935.5,286047001.3,N
1651541955.3,286047001.8,N
1651541975.2,286046999.9,N
1651541995.0,286046998.7,N
1651541995.9,286046998.7,N
1651542015.8,286046997.4,N
1651542035.6,286046999.6,N
1651542055.4,286046996.6,N
1651542075.3,286046999.4,N
1651542095.1,286046998.7,N
1651542115.9,286046999.5,N
1651542135.7,286047000.4,N
1651542155.5,286046999.8,N
1651542175.4,286046999.7,N
1651542195.2,286046999.8,N
1651542215.0,286047001.9,N
1651542215.9,286047001.9,N
1651542235.8,286047003.9,N
1651542255.6,286047001.4,N
1651542275.5,286047004.2,N
1651542295.3,286047001.7,N
1651542315.1,286047002.5,N
1651542335.9,286047002.7,N
1651542355.7,286047002.5,N
1651542375.5,286046999.8,N
1651542395.4,286047004.0,N
1651542415.2,286047003.2,N
1651542435.1,286047001.8,N
1651542436.0,286047001.8,N
1651542455.8,286047001.5,N
1651542475.6,286047002.5,N
1651542495.5,286047000.1,N
1651542515.3,286047000.9,N
1651542535.1,286047001.1,N
1651542555.9,286047000.8,N
1651542575.7,286047001.0,N
1651542595.6,286046998.1,N
1651542615.4,286047000.3,N
1651542635.2,286047002.1,N
1651542655.1,286047000.2,N
1651542656.0,286047000.2,N
1651542675.8,286047001.1,N
1651542695.7,286047002.4,N
1651542715.5,286047001.9,N
1651542735.3,286047002.0,N
1651542755.2,286047001.8,N
1651542775.0,286047001.5,N
1651542775.9,286047001.5,N
1651542795.8,286047002.3,N
1651542815.6,286047002.3,N
1651542835.4,286047004.3,Y
1651542855.3,286047000.5,P
1651542875.1,286046998.5,P
1651542895.8,286047000.6,N
1651542915.7,286046998.2,N
1651542935.5,286047001.2,N
1651542955.4,286046996.9,N
1651542975.2,286046996.7,N
1651542995.0,286046997.9,N
1651542995.9,286046997.9,N
1651543015.8,286046998.0,N
1651543035.6,286046997.6,N
1651543055.4,286046995.4,N
1651543075.3,286046997.6,N
1651543095.1,286046999.2,N
1651543115.9,286046997.9,N
1651543135.7,286046995.7,N
1651543155.5,286046995.2,N
1651543175.4,286046995.1,N
1651543195.2,286046997.9,N
